User: anonymous   Login
Location: Unspecified
(0.0000°N, 0.0000°E)
Time: 23:00:40
(UTC+00:00)
Language:

USA 247 - Orbit

View from above orbital plane
View from above orbital plane
View from above satellite
View from above satellite

Ground track
Ground track

The orbit data is extracted from the following two-line orbital elements,

1 39462U 13072A   20037.19899055 0.00000000  00000-0  00000-0 0    08
2 39462 122.9974  16.6194 0004925  88.8388 271.1611 13.41423614    08
Epoch (UTC): 06 February 2020 04:46:32
Eccentricity: 0.0004925
inclination: 122.9974°
perigee height: 1100 km
apogee height: 1107 km
right ascension of ascending node: 16.6194°
argument of perigee: 88.8388°
revolutions per day: 13.41423614
mean anomaly at epoch: 271.1611°
orbit number at epoch: 0

The dashed part of the orbit path shows where the satellite is in the earth's shadow,  

DLR